This demonstration page uses our WeatherBlox Daily Observations layout. Learn more.

Left ArrowRight Arrow

36.17497, -115.13722

Hourly Observations for June 24, 2019

Temp ( °F °C ) Dew Point ( °F °C ) Humidity (%) Winds ( mph kmh ) Pressure ( in mb ) Visibility ( mi km ) Precip ( " mm )
12:53 am 00:53 Clear 78 25.6 31 -0.6 18 18 WNW 5 7 29.84 1011 10 16 0.00 0.00
1:53 am 01:53 Clear 77 25 29 -1.7 17 17 WNW 5 7 29.83 1010 10 16 0.00 0.00
2:53 am 02:53 Clear 74 23.3 32 0 21 21 NW 3 6 29.83 1010 10 16 0.00 0.00
3:53 am 03:53 Clear 72 22.2 31 -0.6 22 22 Calm 29.83 1010 10 16 0.00 0.00
4:53 am 04:53 Clear 71 21.7 28 -2.2 20 20 NNW 6 9 29.84 1010 10 16 0.00 0.00
5:53 am 05:53 Sunny 70 21.1 27 -2.8 20 20 NNW 5 7 29.85 1011 10 16 0.00 0.00
6:53 am 06:53 Sunny 75 23.9 28 -2.2 18 18 NW 3 6 29.86 1011 10 16 0.00 0.00
7:53 am 07:53 Sunny 79 26.1 29 -1.7 16 16 Calm 29.87 1011 10 16 0.00 0.00
8:53 am 08:53 Sunny 83 28.3 23 -5 11 11 ESE 6 9 29.87 1012 10 16 0.00 0.00
9:53 am 09:53 Sunny 86 30 26 -3.3 11 11 VRB 7 11 29.86 1011 10 16 0.00 0.00
10:53 am 10:53 Sunny 89 31.7 24 -4.4 9 9 ESE 6 9 29.85 1011 10 16 0.00 0.00
11:53 am 11:53 Sunny 93 33.9 26 -3.3 9 9 SSE 9 15 29.83 1010 10 16 0.00 0.00
12:53 pm 12:53 Sunny 95 35 27 -2.8 9 9 SE 10 17 29.81 1009 10 16 0.00 0.00
1:53 pm 13:53 Sunny 98 36.7 25 -3.9 7 7 SSE 9 15 29.77 1008 10 16 0.00 0.00
2:53 pm 14:53 Sunny 99 37.2 25 -3.9 7 7 ESE 12 19 29.75 1007 10 16 0.00 0.00
3:53 pm 15:53 Sunny 99 37.2 24 -4.4 7 7 SE 12 19 29.72 1007 10 16 0.00 0.00
4:53 pm 16:53 Sunny 101 38.3 24 -4.4 6 6 S 14 22 29.69 1006 10 16 0.00 0.00
5:53 pm 17:53 Sunny 100 37.8 25 -3.9 7 7 SSW 9 15 29.67 1005 10 16 0.00 0.00
6:53 pm 18:53 Sunny 99 37.2 26 -3.3 7 7 SW 9 15 29.67 1005 10 16 0.00 0.00
7:53 pm 19:53 Sunny 97 36.1 24 -4.4 7 7 W 9 15 29.67 1005 10 16 0.00 0.00
8:53 pm 20:53 Clear 94 34.4 23 -5 8 8 W 9 15 29.68 1005 10 16 0.00 0.00
9:53 pm 21:53 Clear 92 33.3 25 -3.9 9 9 SW 6 9 29.70 1006 10 16 0.00 0.00
10:53 pm 22:53 Clear 87 30.6 29 -1.7 12 12 S 9 15 29.70 1006 10 16 0.00 0.00
11:53 pm 23:53 Clear 88 31.1 25 -3.9 10 10 SSW 9 15 29.70 1006 10 16 0.00 0.00

Powered by AerisWeather